Vertical_Velocity
0 -0 1 0 -1 0 -1 1 0 0 -1 -2 -1 -3 -3 -3 -4 -3 -3 -3 -1 -2 -2 1 -2 -1 -4 -1 -12 2 2 -3 4 -1 -2 -1 -0 0 -2 -2 -5 -4 1 -1 5 2 2
-2 2 -1 -2 -0 -2 -1 -2 -2 -1 -2 -1 -2 -1 -3 -1 -2 -2 -2 -1 -2 -2 -1 -0 -2 -2 -3 -4 -0 2 -3 -3 3 -1 1 0 -2 2 -4 -0 -3 1 -0 2 6 1 -1
-3 -4 0 -1 -1 -2 -1 1 -2 -1 -2 1 -1 -1 -1 -3 -3 -6 -4 -2 -4 -2 -1 1 -0 -3 -1 -31 1 -0 -2 -4 1 -1 3 0 1 3 0 -0 6 3 -5 -1 0 1 -1
-1 0 -3 -1 -3 -2 -0 -1 -3 -2 -4 -5 -7 -8 -6 -7 -7 -8 -5 -4 -3 -2 3 1 -1 -2 -17 -1 -6 -6 3 -2 -1 0 4 2 2 -4 -3 5 -1 -4 -5 -1 -5 1 1
2 -2 -3 1 -2 -3 -4 -2 -3 -2 -3 -3 -3 -3 -2 -1 -3 -4 -4 -2 -3 0 2 -2 -2 -1 -18 -2 -3 5 2 3 0 -1 3 4 5 -2 4 -4 -3 0 -2 1 -0 -0 -1
-2 -0 -1 -1 -3 -2 -3 -4 -1 -1 -0 -0 -0 -1 1 1 -2 -2 -0 -2 0 0 1 -1 -2 1 -2 2 4 -4 13 10 6 -2 4 4 -1 -2 -1 -2 -7 -3 1 1 -2 -5 2
0 -4 3 -1 -1 1 0 1 -1 3 -0 0 -1 1 1 -2 -2 -3 -8 2 -9 -0 0 -3 -3 -3 1 0 8 -1 8 -1 10 7 -0 0 -4 -3 -9 -4 -2 -2 0 -1 -1 -1 -4
2 -2 -1 -0 0 -2 1 0 0 -1 2 -0 -1 -3 0 -5 -3 -3 -0 -20 2 4 -16 1 -2 -7 -8 23 -17 -11 11 10 3 -2 0 -4 -2 -6 -1 1 2 0 -1 0 0 1 -3
3 -4 3 0 -3 -1 2 -0 -2 -1 -2 -1 -3 -4 -3 -2 -2 2 -4 0 4 3 2 -20 -2 0 -1 7 -4 -41 14 5 -2 2 -0 1 -10 1 1 1 4 -1 -2 -1 -5 1 -1
-1 2 -2 -1 -1 0 0 -3 -2 -2 -3 -3 -4 -5 -7 -6 1 -5 -6 -3 4 -0 -3 -15 -5 5 1 -1 -7 -10 -13 11 3 -4 -0 -2 -10 2 3 -0 -2 1 -0 -2 -1 -4 -4
-1 -2 2 -1 -0 1 -1 -4 0 1 -5 -1 -3 -1 -4 -6 -4 -3 -1 -2 0 -5 -11 -19 -5 26 -2 0 7 -9 15 17 -3 -3 -1 -21 -1 2 1 -8 -2 -2 -2 -1 -1 -0 -4
-0 -0 -1 -2 -4 2 -3 -2 -2 -3 -4 -2 -4 -4 -5 0 1 0 -1 -2 1 -27 -15 -7 5 -4 -11 -6 -5 -10 0 17 2 2 2 -2 1 1 -1 1 -1 -1 -5 -4 -2 -1 -5
0 -1 -2 -2 -0 -1 -1 -2 -1 -2 -4 -1 -2 -4 -2 -3 -6 -3 -4 -6 -19 -13 -10 0 -0 -1 2 -3 -8 1 -1 1 -4 -1 -1 -2 -1 -2 -1 -5 -4 -5 -5 -5 -9 -7 -9
-1 -1 -2 -2 -2 -1 -1 -3 -1 -1 -5 -2 -3 -3 -4 -4 -2 -3 -10 -15 -14 -4 3 -2 1 -4 3 3 -6 -6 -1 -1 2 -1 -1 -3 -10 -1 -1 -3 -8 -2 -5 -8 -5 -2 -4
1 -0 -2 -1 -2 -1 -2 -2 -2 -3 -6 -4 -3 -3 -2 -3 -5 -7 -3 -9 -8 2 5 2 -10 0 -3 -5 6 -1 1 1 -3 -2 -9 -3 -1 -0 -1 0 -10 -7 -1 -6 -4 -1 -5
-2 -1 -2 -3 -2 -1 -2 -2 -4 -3 -5 -3 -3 -3 -5 -3 -6 -5 -10 -2 -0 1 2 -2 2 4 2 -3 2 -2 -0 -4 -1 -0 -2 -4 -4 -1 1 -2 -3 -2 -2 -5 -5 -4 -2
2 -1 -2 -2 -2 -3 -0 -3 -4 -3 -5 -2 -3 -3 -3 1 -1 -4 -5 -3 -0 -1 16 4 1 1 0 1 3 -1 -6 -12 -1 2 -2 -2 -7 -9 -7 -2 -1 -5 -2 -4 -8 -3 -4
-1 -1 -0 -0 -2 -1 -2 -2 -3 -5 -4 -2 -2 -5 -1 1 -8 1 -1 -1 3 -7 -3 -1 1 2 2 0 -0 1 1 4 2 6 0 -2 -3 -1 2 -0 1 1 -2 -4 -6 -6 -0
1 -1 -0 0 -1 -4 -2 -2 -3 -2 -4 -3 -2 -3 1 1 -4 -1 -3 -2 1 -1 -1 -1 -1 2 -0 2 2 3 -0 -6 1 -0 -3 -4 -2 -1 -0 -6 -4 2 -1 -0 -1 -2 -2
-2 -3 1 -1 -2 -3 -2 -1 -3 -1 -2 -4 -2 -7 1 3 5 1 0 -2 -3 -4 2 -1 1 -6 -4 -1 -2 -3 -2 -4 -3 2 7 -10 0 -8 -11 -8 -6 3 1 0 -4 -2 -2
-1 1 1 1 -0 -1 -1 -2 -4 -3 -3 -3 -3 -1 6 -4 -4 -1 1 1 -0 -2 -0 1 -4 1 4 1 -1 1 -1 -6 -9 -1 -1 -4 1 -0 -1 -0 1 -1 -1 0 -0 -3 -5
-2 -4 -2 0 0 -0 -2 -4 -2 -3 -3 -4 -3 -3 -4 -2 0 -0 -1 -2 1 -5 4 -3 2 -2 2 3 6 -0 6 1 1 -8 1 1 -3 -0 -5 0 1 1 0 0 -0 0 1
-1 -2 0 -0 -1 -1 -1 -2 -1 -1 -1 -3 0 3 2 -2 -2 -0 -2 2 -1 0 -7 2 7 3 0 1 4 -3 1 -2 -2 4 -0 2 -0 1 -3 -0 -1 -7 -6 -2 -1 0 -8
-0 1 -0 -2 -1 -1 -1 -1 -1 -2 1 -1 -1 -3 -1 -4 2 1 -1 6 1 3 2 -5 4 3 -10 -6 -5 -1 8 5 5 -4 2 0 1 1 -1 -2 -6 -23 -0 -3 -5 -3 1
-1 -0 1 -1 -2 -1 -1 -1 -1 -3 1 -2 -2 -1 0 -1 3 -5 -2 2 -4 -5 1 6 2 7 8 1 3 -1 -1 4 -2 -2 1 1 1 -0 -4 -0 -9 -7 -2 -2 -5 -8 -4
-1 1 -0 -1 1 -2 0 -1 -1 0 1 -2 0 1 -0 5 -5 4 1 0 1 -0 -4 -3 -11 -2 1 3 2 1 0 -1 3 -1 1 3 1 -5 -0 -1 -2 -9 -1 1 -2 -8 0
-1 0 0 0 -1 -1 -1 -1 -3 -0 0 -1 -2 3 4 4 -21 7 2 2 3 -1 2 -2 -6 -10 -2 -0 1 1 0 -0 0 -1 0 1 0 -3 0 -1 -10 -4 -1 0 -8 -22 0
-0 1 -1 -0 2 1 -1 -2 -3 -4 -0 -1 -1 3 3 -2 -25 -7 5 3 -4 0 2 -1 -8 -5 -2 -3 2 1 1 -5 1 -3 -4 -4 -5 -1 -1 -1 -10 0 -2 -1 -12 -0 1
2 0 2 -2 1 -2 -1 -0 -4 -3 -1 8 -8 4 9 10 -18 -1 6 -0 3 -4 9 1 -1 -2 -1 -1 -2 0 -2 -1 0 -3 0 -7 -11 -10 -10 -14 -3 1 -1 -0 0 0 -1
Height
1569 1567 1567 1566 1565 1565 1564 1563 1561 1559 1556 1555 1552 1550 1547 1544 1541 1538 1536 1533 1531 1529 1527 1525 1523 1522 1522 1522 1518 1517 1516 1516 1515 1514 1513 1512 1512 1512 1516 1517 1517 1523 1524 1525 1528 1529 1532
1569 1568 1568 1567 1566 1566 1565 1563 1561 1559 1557 1555 1552 1549 1546 1542 1539 1535 1533 1531 1528 1525 1524 1523 1521 1521 1521 1522 1515 1515 1514 1514 1514 1513 1511 1511 1510 1511 1514 1518 1519 1523 1525 1529 1530 1531 1535
1569 1569 1568 1567 1567 1566 1565 1563 1562 1561 1558 1556 1553 1550 1547 1543 1539 1536 1532 1529 1526 1524 1522 1521 1520 1520 1518 1513 1512 1511 1512 1512 1513 1511 1510 1510 1509 1509 1513 1518 1521 1524 1531 1530 1531 1531 1537
1569 1568 1568 1567 1567 1566 1565 1564 1562 1560 1558 1555 1552 1549 1544 1540 1535 1531 1528 1526 1522 1521 1520 1518 1519 1519 1513 1509 1507 1506 1510 1510 1511 1510 1510 1508 1508 1508 1511 1518 1523 1529 1533 1542 1532 1530 1534
1569 1568 1568 1568 1566 1565 1564 1563 1562 1560 1557 1554 1551 1547 1543 1539 1533 1528 1524 1520 1517 1518 1518 1516 1518 1518 1509 1505 1504 1505 1507 1508 1509 1509 1508 1508 1507 1509 1514 1521 1533 1532 1542 1537 1533 1528 1530
1569 1568 1568 1567 1566 1565 1564 1563 1561 1559 1556 1554 1550 1548 1543 1538 1532 1526 1520 1516 1514 1515 1516 1516 1517 1519 1505 1504 1504 1502 1506 1508 1509 1509 1509 1509 1508 1513 1517 1524 1538 1533 1534 1532 1532 1526 1528
1569 1569 1568 1566 1565 1565 1564 1562 1561 1559 1556 1554 1550 1547 1543 1538 1532 1526 1518 1516 1518 1517 1517 1518 1518 1514 1503 1503 1505 1504 1505 1506 1508 1509 1513 1510 1516 1520 1508 1506 1507 1512 1518 1522 1522 1520 1525
1568 1568 1567 1566 1565 1565 1564 1562 1561 1560 1557 1554 1550 1547 1544 1540 1535 1531 1526 1524 1538 1539 1526 1513 1511 1507 1502 1508 1509 1503 1504 1506 1506 1511 1511 1515 1514 1506 1505 1507 1508 1509 1517 1519 1517 1518 1523
1568 1568 1568 1566 1565 1565 1564 1562 1561 1559 1557 1554 1551 1547 1544 1541 1537 1535 1532 1535 1538 1538 1537 1512 1509 1503 1502 1504 1505 1503 1505 1504 1503 1509 1513 1514 1505 1505 1508 1509 1512 1510 1514 1517 1518 1520 1521
1568 1567 1567 1567 1566 1565 1564 1563 1562 1560 1557 1555 1552 1549 1545 1541 1541 1536 1535 1535 1536 1535 1541 1522 1510 1507 1508 1505 1503 1498 1498 1505 1501 1505 1510 1508 1502 1503 1504 1505 1507 1512 1502 1507 1515 1525 1536
1569 1568 1568 1567 1566 1566 1564 1563 1562 1559 1558 1556 1553 1551 1547 1543 1544 1541 1540 1536 1536 1536 1566 1520 1513 1514 1513 1511 1506 1496 1493 1497 1500 1501 1506 1508 1502 1498 1500 1497 1501 1510 1506 1510 1515 1523 1528
1569 1569 1568 1567 1567 1565 1564 1564 1562 1560 1559 1557 1554 1552 1549 1548 1545 1542 1539 1536 1536 1553 1567 1522 1519 1519 1512 1505 1503 1497 1494 1496 1495 1497 1500 1502 1500 1501 1497 1497 1499 1507 1513 1520 1523 1530 1557
1569 1568 1568 1568 1567 1565 1564 1564 1562 1560 1559 1558 1555 1553 1550 1549 1547 1543 1539 1536 1555 1572 1537 1535 1534 1527 1517 1511 1502 1497 1492 1493 1500 1506 1509 1504 1506 1503 1504 1508 1507 1512 1526 1563 1559 1564 1559
1569 1568 1568 1568 1566 1565 1564 1563 1562 1560 1559 1557 1556 1554 1552 1551 1549 1546 1542 1542 1572 1553 1547 1543 1540 1529 1523 1520 1512 1504 1496 1498 1493 1499 1513 1519 1530 1510 1508 1510 1514 1517 1522 1555 1561 1546 1537
1570 1568 1568 1567 1566 1565 1564 1563 1561 1560 1559 1558 1556 1555 1554 1553 1551 1549 1546 1567 1574 1557 1554 1549 1541 1533 1530 1526 1527 1514 1508 1496 1491 1495 1511 1526 1519 1506 1508 1507 1508 1516 1523 1516 1531 1537 1545
1569 1568 1567 1567 1566 1565 1564 1563 1562 1561 1560 1558 1558 1556 1556 1555 1554 1552 1553 1565 1559 1555 1554 1551 1549 1547 1545 1534 1529 1521 1513 1500 1494 1490 1497 1518 1525 1512 1509 1511 1509 1513 1518 1528 1533 1554 1557
1569 1568 1567 1566 1566 1565 1564 1563 1562 1562 1561 1559 1559 1558 1558 1558 1557 1556 1568 1566 1557 1553 1554 1552 1550 1548 1542 1538 1528 1526 1515 1504 1500 1498 1504 1508 1520 1522 1511 1520 1527 1525 1532 1533 1542 1550 1542
1569 1568 1567 1566 1565 1565 1564 1563 1562 1562 1561 1560 1559 1560 1560 1559 1561 1561 1565 1560 1557 1553 1550 1548 1546 1542 1541 1538 1533 1525 1517 1512 1507 1507 1506 1511 1517 1530 1527 1521 1521 1519 1524 1527 1542 1552 1547
1568 1568 1567 1566 1565 1565 1565 1564 1563 1563 1562 1561 1562 1562 1561 1561 1569 1568 1562 1559 1557 1554 1551 1548 1547 1543 1540 1538 1540 1528 1522 1511 1509 1509 1512 1510 1521 1531 1536 1528 1524 1526 1521 1528 1535 1538 1541
1567 1568 1567 1566 1565 1565 1564 1564 1564 1564 1564 1564 1565 1566 1562 1562 1563 1563 1562 1561 1558 1553 1551 1550 1549 1545 1545 1536 1530 1525 1519 1513 1511 1507 1510 1511 1512 1511 1513 1507 1511 1520 1510 1519 1520 1541 1537
1565 1566 1566 1566 1565 1564 1563 1563 1564 1565 1565 1566 1567 1568 1568 1569 1564 1565 1563 1560 1558 1557 1553 1551 1548 1548 1549 1541 1529 1520 1519 1517 1512 1504 1507 1510 1508 1500 1496 1493 1500 1500 1500 1510 1517 1517 1519
1563 1564 1565 1565 1564 1564 1563 1563 1565 1565 1566 1567 1569 1570 1569 1568 1566 1564 1562 1561 1560 1558 1556 1551 1549 1545 1543 1543 1540 1529 1524 1523 1521 1511 1506 1505 1507 1500 1504 1493 1494 1495 1493 1497 1502 1510 1509
1562 1562 1563 1564 1563 1563 1564 1564 1565 1565 1567 1567 1569 1571 1570 1569 1566 1566 1563 1562 1561 1559 1553 1551 1548 1544 1539 1536 1534 1527 1524 1520 1518 1516 1510 1506 1507 1510 1507 1497 1494 1506 1495 1492 1494 1494 1495
1559 1560 1561 1562 1562 1563 1563 1563 1565 1566 1567 1568 1570 1571 1571 1569 1567 1565 1563 1562 1560 1558 1557 1549 1546 1543 1539 1532 1522 1513 1509 1505 1507 1504 1509 1509 1508 1507 1506 1500 1521 1484 1474 1476 1479 1480 1484
1557 1559 1559 1560 1561 1562 1562 1563 1563 1566 1567 1567 1569 1572 1572 1568 1566 1563 1561 1560 1558 1555 1552 1548 1544 1542 1534 1527 1517 1506 1501 1497 1494 1492 1497 1502 1507 1507 1508 1510 1493 1475 1468 1469 1475 1476 1473
1555 1556 1557 1558 1559 1560 1560 1561 1562 1564 1565 1566 1568 1569 1570 1569 1563 1563 1562 1561 1558 1554 1550 1546 1542 1536 1531 1523 1512 1504 1498 1496 1487 1482 1480 1492 1499 1501 1514 1506 1502 1480 1466 1465 1466 1485 1467
1552 1554 1555 1556 1557 1558 1558 1559 1560 1562 1564 1565 1565 1567 1568 1566 1561 1561 1561 1560 1557 1556 1554 1548 1544 1536 1535 1526 1513 1505 1500 1500 1488 1487 1490 1494 1498 1507 1521 1518 1494 1471 1466 1466 1482 1485 1467
1550 1551 1553 1554 1555 1555 1556 1556 1557 1558 1561 1562 1562 1564 1566 1562 1557 1556 1556 1556 1556 1556 1555 1549 1547 1543 1538 1535 1523 1514 1500 1494 1483 1477 1482 1490 1499 1509 1510 1507 1502 1469 1468 1472 1472 1467 1467
1547 1548 1550 1552 1553 1553 1553 1554 1553 1555 1558 1559 1559 1560 1562 1560 1552 1549 1548 1549 1551 1551 1552 1549 1548 1549 1545 1544 1541 1534 1522 1500 1490 1491 1476 1488 1484 1492 1489 1488 1469 1468 1468 1468 1467 1467 1466